STARLINK-30197 (57443 NORAD) Tracking and Keplerian Element Data

This shows tracking and keplerian element data for the satellite.

Feedback or suggestion? Click here.




ElementValue
Catalog57443
NameSTARLINK-30197
Epoch Orbit2729
Epoch Day13.01114897
Epoch Year2024
RAAN216.2404
Inclination43.0009
Eccentricity0.0001395
Argument of Perigee258.8032
Mean Anonmoly101.2653
Mean Motion15.02536081
Decay Rate-1.486E-05
L11 57443U 23105P 24013.01114897 -.00001486 00000+0 -94975-4 0 9993
L22 57443 43.0009 216.2404 0001395 258.8032 101.2653 15.02536081 27295



Live tracking and technical data element details for STARLINK-30197 (NORAD 57443). STARLINK-30197 can be tracked NOW for your location showing map with azimuth and elevation plus other details from your city location.







IsCatalogInMostPopularTable: catalog: 57443, numindb: 4
Update: records affected: 1



GetName: 57443 STARLINK-30197

Hit Count: updated at: Thu, 22 Feb 2024 00:23:04 GMT